CQ0XBF-11 Chamusca PT current weather conditions

sailwx.info

Wind from 153

Air temperature 17.8° C
Dewpoint 16.1° C

Last reported at 2016-May-05 11:46 UTC.
Time now 2016-May-05 12:19 UTC

Location: N 39°21' W 008°28'.
View on Google Maps.

See reports from other nearby stations

  
Tides and Currents Weather Stations Pressure Air Temp Water Temp Dewpoint Dewpoint Depression Visibility Wind Speed Wind Dir Waves Ship Positions
date/time (UTC)wind fromknots sea level pressurealtimeterstation pressurevisibilityair tempwater tempwave heightnotes
2016-May-05 11:46 153 17.8
2016-May-05 11:40 153 17.8
2016-May-05 11:36 153 17.8
2016-May-05 11:30 153 17.8
2016-May-05 11:26 153 17.8
2016-May-05 11:19 153 17.8
2016-May-05 11:15 153 17.8
2016-May-05 11:09 154 17.8
2016-May-05 11:05 143 17.8
2016-May-05 10:59 143 17.2
2016-May-05 10:55 143 17.8
2016-May-05 10:49 143 17.8
2016-May-05 10:45 132 17.2
2016-May-05 10:39 160 17.2
2016-May-05 10:35 160 17.2
2016-May-05 10:31 167 17.2
2016-May-05 10:25 105 0 gusting 3 17.2
2016-May-05 10:21 154 0 gusting 2 17.2
2016-May-05 10:15 126 17.2
2016-May-05 10:11 157 0 gusting 1 17.2
2016-May-05 10:04 146 16.7
2016-May-05 10:00 146 16.7
2016-May-05 09:54 146 16.7
2016-May-05 09:50 143 16.7
2016-May-05 09:44 143 16.7
2016-May-05 09:40 143 16.7
2016-May-05 09:34 130 16.1
2016-May-05 09:30 098 16.1
2016-May-05 09:24 119 16.1
2016-May-05 09:20 106 2 gusting 2 16.1
2016-May-05 09:14 149 0 gusting 3 16.1
2016-May-05 09:10 088 3 gusting 3 16.1
2016-May-05 09:06 129 16.1
2016-May-05 09:00 129 16.1
2016-May-05 08:56 123 0 gusting 1 16.1
2016-May-05 08:49 043 16.1
2016-May-05 08:45 132 2 gusting 4 16.1
2016-May-05 08:39 085 0 gusting 4 16.1
2016-May-05 08:35 130 15.6
2016-May-05 08:29 139 4 gusting 4 15.6
2016-May-05 08:25 067 15.6
2016-May-05 08:19 119 15.6
2016-May-05 08:15 157 1 gusting 7 15.6
2016-May-05 08:09 061 1 gusting 6 15.6
2016-May-05 08:05 157 15.6
2016-May-05 07:59 106 6 gusting 7 15.6
2016-May-05 07:55 111 5 gusting 7 15.6
2016-May-05 07:51 158 5 gusting 8 15.6
2016-May-05 07:45 129 3 gusting 7 15.6
2016-May-05 07:41 137 3 gusting 6 15.6
2016-May-05 07:35 105 2 gusting 6 15.6
2016-May-05 07:30 106 3 gusting 8 15.6
2016-May-05 07:24 123 2 gusting 5 15.6
2016-May-05 07:20 133 2 gusting 5 15.6
2016-May-05 07:14 146 15.6
2016-May-05 07:10 052 2 gusting 5 15.6
2016-May-05 07:04 030 1 gusting 9 15.6
2016-May-05 07:00 077 0 gusting 9 15.6
2016-May-05 06:54 154 3 gusting 6 15.6
2016-May-05 06:50 095 15.6
2016-May-05 06:44 078 4 gusting 5 15.6
2016-May-05 06:40 129 3 gusting 5 15.6
2016-May-05 06:36 132 3 gusting 4 16.1
2016-May-05 06:30 097 2 gusting 5 15.6
2016-May-05 06:26 104 3 gusting 4 15.6
2016-May-05 06:20 140 2 gusting 4 15.6
2016-May-05 06:16 137 1 gusting 6 16.1
2016-May-05 06:09 068 3 gusting 5 16.1
2016-May-05 06:05 137 2 gusting 3 16.1
2016-May-05 05:59 130 2 gusting 4 16.1
2016-May-05 05:55 113 2 gusting 4 16.1
2016-May-05 05:49 098 1 gusting 3 16.7
2016-May-05 05:45 120 1 gusting 3 16.7
2016-May-05 05:39 127 1 gusting 3 16.7
2016-May-05 05:35 088 3 gusting 3 16.7
2016-May-05 05:29 078 2 gusting 1 17.2
2016-May-05 05:25 140 17.2
2016-May-05 05:21 060 17.2
2016-May-05 05:15 075 17.2
2016-May-05 05:11 075 17.2
2016-May-05 05:05 075 17.2
2016-May-05 05:01 292 17.2
2016-May-05 04:54 071 17.2
2016-May-05 04:50 073 0 gusting 4 17.2
2016-May-05 04:44 014 0 gusting 2 17.2
2016-May-05 04:40 053 17.2
2016-May-05 04:34 119 2 gusting 5 17.2
2016-May-05 04:30 120 1 gusting 5 17.2
2016-May-05 04:24 123 0 gusting 5 17.2
2016-May-05 04:20 054 0 gusting 5 17.2
2016-May-05 04:14 078 1 gusting 4 17.2
2016-May-05 04:10 042 17.2
2016-May-05 04:04 088 17.2
2016-May-05 04:00 109 2 gusting 4 17.2
2016-May-05 03:56 092 1 gusting 5 17.2
2016-May-05 03:50 092 0 gusting 4 17.2
2016-May-05 03:46 139 0 gusting 6 17.2
2016-May-05 03:39 126 0 gusting 2 17.8
2016-May-05 03:35 144 1 gusting 2 17.8
2016-May-05 03:29 016 0 gusting 2 17.8
2016-May-05 03:25 087 0 gusting 0 17.8
2016-May-05 03:19 029 17.8
2016-May-05 03:15 029 17.8
2016-May-05 03:09 115 17.8
2016-May-05 03:05 288 17.8
2016-May-05 02:59 333 1 gusting 1 17.8
2016-May-05 02:55 331 18.3
2016-May-05 02:49 284 18.3
2016-May-05 02:45 305 18.3
2016-May-05 02:41 322 1 gusting 0 18.9
2016-May-05 02:35 054 18.9
2016-May-05 02:31 116 18.3
2016-May-05 02:24 116 18.3
2016-May-05 02:20 068 0 gusting 3 18.3
2016-May-05 02:14 087 18.9
2016-May-05 02:10 292 18.9
2016-May-05 02:04 292 18.9
2016-May-05 02:00 351 18.9
2016-May-05 01:54 333 18.9
2016-May-05 01:50 268 18.9
2016-May-05 01:44 078 1 gusting 2 18.9
2016-May-05 01:40 108 18.9
2016-May-05 01:34 094 18.9
2016-May-05 01:30 330 0 gusting 1 18.9
2016-May-05 01:26 282 18.9
2016-May-05 01:20 313 18.9
2016-May-05 01:16 312 18.9
2016-May-05 01:10 329 1 gusting 2 19.4
2016-May-05 01:05 001 18.9
2016-May-05 00:59 067 19.4
2016-May-05 00:55 289 19.4
2016-May-05 00:49 244 19.4
2016-May-05 00:45 005 19.4
2016-May-05 00:39 331 19.4
2016-May-05 00:35 012 0 gusting 5 19.4
2016-May-05 00:29 327 0 gusting 3 19.4
2016-May-05 00:25 305 19.4
2016-May-05 00:19 018 19.4
2016-May-05 00:15 327 1 gusting 4 19.4
2016-May-05 00:11 091 0 gusting 3 19.4
2016-May-05 00:05 085 3 gusting 4 19.4
2016-May-05 00:01 087 19.4
2016-May-04 23:55 088 0 gusting 3 19.4
2016-May-04 23:50 150 2 gusting 3 20.0
2016-May-04 23:44 085 0 gusting 2 20.0
2016-May-04 23:40 292 20.0
2016-May-04 23:34 292 20.6
2016-May-04 23:30 292 20.0
2016-May-04 23:24 316 20.0
2016-May-04 23:20 316 20.0
2016-May-04 23:14 352 0 gusting 0 20.6
2016-May-04 23:10 285 20.6
2016-May-04 23:00 001 21.1
2016-May-04 22:56 001 21.7
2016-May-04 22:50 001 21.7
2016-May-04 22:46 001 21.7
2016-May-04 22:40 001 21.1
2016-May-04 22:36 001 21.1
2016-May-04 22:29 001 20.6
2016-May-04 22:25 323 21.1
2016-May-04 22:19 005 21.1
2016-May-04 22:15 345 21.1
2016-May-04 22:09 306 21.7
2016-May-04 22:05 306 21.7
2016-May-04 21:59 306 21.1
2016-May-04 21:55 293 21.1
2016-May-04 21:49 248 21.1
2016-May-04 21:45 320 0 gusting 5 21.1
2016-May-04 21:39 336 1 gusting 3 21.7
2016-May-04 21:35 239 22.2
2016-May-04 21:31 215 2 gusting 3 21.7
2016-May-04 21:25 206 1 gusting 5 21.7
2016-May-04 21:19 189 0 gusting 7 21.7
2016-May-04 21:14 192 3 gusting 7 22.2
2016-May-04 21:10 217 2 gusting 10 22.2
2016-May-04 21:04 187 4 gusting 8 22.2
2016-May-04 21:00 208 4 gusting 6 22.2
2016-May-04 20:54 205 4 gusting 7 22.8
2016-May-04 20:50 210 3 gusting 7 22.8
2016-May-04 20:44 217 4 gusting 8 23.3
2016-May-04 20:40 237 6 gusting 8 23.3
2016-May-04 20:34 212 3 gusting 5 23.9
2016-May-04 20:30 258 2 gusting 5 23.9
2016-May-04 20:24 241 2 gusting 5 23.9
2016-May-04 20:20 220 3 gusting 5 24.4
2016-May-04 20:16 223 1 gusting 4 24.4
2016-May-04 20:10 208 2 gusting 4 24.4
2016-May-04 20:06 247 1 gusting 4 25.0
2016-May-04 20:00 220 2 gusting 5 25.0
2016-May-04 19:55 229 2 gusting 6 25.0
2016-May-04 19:49 239 5 gusting 7 25.0
2016-May-04 19:45 237 2 gusting 6 25.0
2016-May-04 19:39 243 5 gusting 6 25.6
2016-May-04 19:35 268 1 gusting 5 25.6
2016-May-04 19:29 240 1 gusting 6 25.6
2016-May-04 19:25 247 2 gusting 6 25.6
2016-May-04 19:19 209 4 gusting 8 25.6
2016-May-04 19:15 227 2 gusting 8 25.6
2016-May-04 19:09 226 6 gusting 8 25.6
2016-May-04 19:05 223 4 gusting 8 26.1
2016-May-04 19:01 220 5 gusting 10 26.1
2016-May-04 18:55 185 6 gusting 11 26.1
2016-May-04 18:51 198 4 gusting 12 26.7
2016-May-04 18:45 215 6 gusting 16 27.2
2016-May-04 18:41 222 10 gusting 12 28.3
2016-May-04 18:34 165 4 gusting 9 28.3
2016-May-04 18:30 171 6 gusting 8 28.9
2016-May-04 18:24 172 5 gusting 9 28.9
2016-May-04 18:20 123 5 gusting 9 28.9
2016-May-04 18:14 184 7 gusting 13 29.4
2016-May-04 18:10 151 9 gusting 13 29.4
2016-May-04 18:04 163 8 gusting 8 30.0
2016-May-04 18:00 150 6 gusting 8 30.0
2016-May-04 17:54 201 5 gusting 13 29.4
2016-May-04 17:50 149 6 gusting 13 29.4
2016-May-04 17:46 168 7 gusting 11 29.4
2016-May-04 17:40 168 6 gusting 12 29.4
2016-May-04 17:36 170 7 gusting 10 30.0
2016-May-04 17:30 180 5 gusting 10 30.0
2016-May-04 17:26 177 6 gusting 11 30.0
2016-May-04 17:19 156 4 gusting 8 31.1
2016-May-04 17:15 163 3 gusting 10 31.1
2016-May-04 17:09 167 1 gusting 7 31.1
2016-May-04 17:05 205 6 gusting 9 31.1
2016-May-04 16:59 150 6 gusting 8 31.7
2016-May-04 16:55 149 6 gusting 8 31.7
2016-May-04 16:49 118 3 gusting 6 30.6
2016-May-04 16:45 088 6 gusting 6 30.6
2016-May-04 16:39 101 0 gusting 7 31.1
2016-May-04 16:35 156 1 gusting 7 31.7
2016-May-04 16:29 088 3 gusting 8 31.7
2016-May-04 16:25 120 4 gusting 8 32.2
2016-May-04 16:21 170 6 gusting 7 32.2
2016-May-04 13:04 123 5 gusting 9 30.6
2016-May-04 13:00 154 6 gusting 9 30.6
2016-May-04 12:54 136 6 gusting 6 31.1
2016-May-04 12:50 101 1 gusting 6 31.7
2016-May-04 12:44 108 2 gusting 5 31.7
2016-May-04 12:40 180 1 gusting 5 30.6
2016-May-04 12:34 077 5 gusting 5 30.0
2016-May-04 12:30 094 3 gusting 5 29.4
2016-May-04 12:26 127 2 gusting 3 30.0
2016-May-04 12:20 064 1 gusting 4 29.4
2016-May-04 12:16 090 1 gusting 2 29.4
2016-May-04 12:09 085 28.9
2016-May-04 12:05 123 0 gusting 4 28.9
2016-May-04 11:59 144 30.0
2016-May-04 11:55 068 30.6
2016-May-04 11:49 009 30.0
2016-May-04 11:45 104 0 gusting 6 30.0
2016-May-04 11:39 140 4 gusting 3 29.4
2016-May-04 11:35 104 0 gusting 3 29.4
2016-May-04 11:29 059 30.0
2016-May-04 11:25 191 1 gusting 4 29.4
2016-May-04 11:19 149 3 gusting 6 28.3
2016-May-04 11:15 082 0 gusting 6 27.8
2016-May-04 11:11 118 2 gusting 5 27.2
2016-May-04 11:05 133 3 gusting 5 27.8
2016-May-04 11:01 144 1 gusting 5 28.3
2016-May-04 10:54 175 0 gusting 5 27.2
2016-May-04 10:50 129 3 gusting 8 27.2
2016-May-04 10:44 118 2 gusting 3 27.2
2016-May-04 10:40 022 27.2
2016-May-04 10:34 075 3 gusting 6 27.8
2016-May-04 10:30 129 0 gusting 6 27.2
2016-May-04 10:24 106 1 gusting 5 27.2
2016-May-04 10:20 158 3 gusting 5 27.8
2016-May-04 10:14 196 1 gusting 6 27.2
2016-May-04 10:10 133 2 gusting 6 27.2
2016-May-04 10:04 126 4 gusting 5 26.7
2016-May-04 10:00 040 0 gusting 5 26.7
2016-May-04 09:56 139 3 gusting 6 26.1
2016-May-04 09:50 068 1 gusting 6 25.6
2016-May-04 09:46 167 0 gusting 6 25.6
2016-May-04 09:40 130 2 gusting 6 25.0
2016-May-04 09:35 126 4 gusting 5 25.0
2016-May-04 09:29 099 2 gusting 6 24.4
2016-May-04 09:25 087 0 gusting 6 23.9
2016-May-04 09:19 130 6 gusting 8 23.9
2016-May-04 09:15 109 1 gusting 8 23.3
2016-May-04 09:09 105 0 gusting 8 22.8
2016-May-04 09:05 112 1 gusting 8 22.2
2016-May-04 08:59 101 3 gusting 6 21.7
2016-May-04 08:55 105 3 gusting 6 21.7
2016-May-04 08:49 120 2 gusting 6 21.1
2016-May-04 08:45 119 2 gusting 6 21.7
2016-May-04 08:39 061 0 gusting 6 21.7
2016-May-04 08:35 161 21.7
2016-May-04 08:31 073 1 gusting 7 21.1
2016-May-04 08:25 116 5 gusting 7 21.1
2016-May-04 08:18 002 0 gusting 13 21.7
2016-May-04 08:14 118 6 gusting 13 22.2
2016-May-04 08:10 132 5 gusting 9 22.8
2016-May-04 08:04 084 3 gusting 8 22.2
2016-May-04 08:00 137 4 gusting 8 21.7
2016-May-04 07:54 171 0 gusting 8 21.7
2016-May-04 07:50 091 1 gusting 8 21.7
2016-May-04 07:44 097 2 gusting 8 21.1
2016-May-04 07:40 088 3 gusting 8 21.1
2016-May-04 07:34 104 3 gusting 6 20.6
2016-May-04 07:30 135 4 gusting 6 20.6
2016-May-04 07:24 078 5 gusting 6 20.6
2016-May-04 07:20 084 2 gusting 6 20.6
2016-May-04 07:16 064 4 gusting 7 20.6
2016-May-04 07:10 075 3 gusting 7 20.0
2016-May-04 07:04 094 5 gusting 7 20.0
2016-May-04 06:59 122 2 gusting 7 20.0
2016-May-04 06:55 109 3 gusting 8 19.4
2016-May-04 06:49 085 3 gusting 7 18.9
2016-May-04 06:45 119 2 gusting 7 18.9
2016-May-04 06:39 122 4 gusting 7 18.9
2016-May-04 06:35 084 4 gusting 7 18.3
2016-May-04 06:29 094 5 gusting 7 18.3
2016-May-04 06:25 077 5 gusting 7 18.3
2016-May-04 06:19 074 3 gusting 6 18.3
2016-May-04 06:15 063 5 gusting 6 18.3
2016-May-04 06:09 095 3 gusting 8 18.3
2016-May-04 06:05 060 5 gusting 8 18.3
2016-May-04 06:01 098 6 gusting 7 18.3
2016-May-04 05:55 113 4 gusting 7 18.3
2016-May-04 05:49 084 1 gusting 3 18.3
2016-May-04 05:44 104 1 gusting 3 18.3
2016-May-04 05:40 106 1 gusting 5 18.3
2016-May-04 05:34 113 1 gusting 6 17.8
2016-May-04 05:30 106 2 gusting 6 17.8
2016-May-04 05:24 119 2 gusting 6 17.2
2016-May-04 05:18 075 3 gusting 2 16.7
2016-May-04 05:14 070 16.7
2016-May-04 05:10 317 0 gusting 3 16.7
2016-May-04 05:02 265 16.7
2016-May-04 05:00 052 0 gusting 4 16.7
2016-May-04 04:54 337 16.7
2016-May-04 04:50 022 16.7
2016-May-04 04:46 337 16.7
2016-May-04 04:40 018 3 gusting 4 17.2
2016-May-04 04:34 115 17.8
2016-May-04 04:28 118 1 gusting 6 17.8
2016-May-04 04:25 018 2 gusting 6 17.8
2016-May-04 04:19 092 1 gusting 6 17.2
2016-May-04 04:15 112 17.2
2016-May-04 04:09 040 17.2
2016-May-04 04:05 322 0 gusting 3 17.2
2016-May-04 03:59 337 3 gusting 4 17.2
2016-May-04 03:55 320 2 gusting 4 17.2
2016-May-04 03:49 323 2 gusting 5 17.2
2016-May-04 03:45 272 0 gusting 5 17.2
2016-May-04 03:37 309 17.8
2016-May-04 03:35 358 0 gusting 4 17.8
2016-May-04 03:31 300 2 gusting 2 17.8
2016-May-04 03:25 064 18.3
2016-May-04 03:19 026 0 gusting 3 18.3
2016-May-04 03:15 078 18.3
2016-May-04 03:10 355 18.3
2016-May-04 03:04 026 0 gusting 3 18.3
2016-May-04 03:00 331 0 gusting 3 18.3
2016-May-04 02:54 333 0 gusting 3 18.3
2016-May-04 02:50 345 18.3
2016-May-04 02:44 358 2 gusting 3 18.9
2016-May-04 02:40 329 1 gusting 3 18.9
2016-May-04 02:34 327 1 gusting 2 18.9
2016-May-04 02:30 315 2 gusting 2 18.9
2016-May-04 02:22 070 1 gusting 3 19.4
2016-May-04 02:20 073 19.4
2016-May-04 02:16 316 0 gusting 2 19.4
2016-May-04 02:10 116 2 gusting 1 20.0
2016-May-04 02:04 133 20.0
2016-May-04 02:00 149 20.0
2016-May-04 01:56 157 20.0
2016-May-04 01:49 090 0 gusting 2 20.0
2016-May-04 01:45 247 20.0
2016-May-04 01:39 336 20.0
2016-May-04 01:35 042 0 gusting 2 20.0
2016-May-04 01:29 014 0 gusting 2 20.0
2016-May-04 01:25 043 20.0
2016-May-04 01:19 091 1 gusting 2 20.0
2016-May-04 01:15 300 20.0
2016-May-04 01:09 323 0 gusting 3 20.0
2016-May-04 01:05 310 1 gusting 3 20.0
2016-May-04 00:59 322 3 gusting 4 20.0
2016-May-04 00:55 300 1 gusting 4 20.0
2016-May-04 00:49 317 2 gusting 3 20.6
2016-May-04 00:45 313 1 gusting 3 20.6
2016-May-04 00:41 324 1 gusting 2 20.6
2016-May-04 00:10 326 1 gusting 2 21.1
2016-May-03 23:58 298 0 gusting 2 21.1
2016-May-03 23:44 275 21.7
2016-May-03 23:40 309 4 gusting 2 21.7
2016-May-03 23:35 316 1 gusting 3 21.7
2016-May-03 23:30 306 21.7
2016-May-03 23:26 289 2 gusting 4 22.2
2016-May-03 23:20 104 1 gusting 4 22.2
2016-May-03 23:15 082 22.2
2016-May-03 23:09 191 0 gusting 5 22.2
2016-May-03 23:05 063 22.2
2016-May-03 22:59 126 4 gusting 5 22.2
2016-May-03 22:55 345 1 gusting 4 22.8
2016-May-03 22:49 030 22.8
2016-May-03 22:45 320 0 gusting 3 22.8
2016-May-03 22:39 310 1 gusting 4 22.8
2016-May-03 22:35 063 1 gusting 4 22.8
2016-May-03 22:29 272 22.8
2016-May-03 22:23 300 2 gusting 1 23.3
2016-May-03 22:19 329 23.3
2016-May-03 22:15 194 23.3
2016-May-03 22:11 168 0 gusting 2 23.3
2016-May-03 22:05 216 1 gusting 2 23.9
2016-May-03 22:01 296 1 gusting 2 23.9
2016-May-03 21:54 315 23.9
2016-May-03 21:48 267 0 gusting 3 23.9
2016-May-03 21:44 289 23.9
2016-May-03 21:40 306 23.9
2016-May-03 21:34 268 23.9
2016-May-03 21:30 066 23.9
2016-May-03 21:24 298 1 gusting 5 24.4
2016-May-03 21:20 334 0 gusting 5 24.4
2016-May-03 21:14 351 0 gusting 6 25.0
2016-May-03 21:10 260 25.6
2016-May-03 21:04 075 3 gusting 6 25.6
2016-May-03 21:00 092 4 gusting 6 25.6
2016-May-03 20:56 087 2 gusting 5 25.6
2016-May-03 20:50 111 3 gusting 5 25.6
2016-May-03 20:46 101 4 gusting 4 25.6
2016-May-03 20:39 109 2 gusting 5 25.6
2016-May-03 20:35 116 3 gusting 4 26.1
2016-May-03 20:29 113 2 gusting 4 26.1
2016-May-03 20:25 091 1 gusting 4 26.7
2016-May-03 20:19 084 2 gusting 4 26.7
2016-May-03 20:15 120 2 gusting 4 26.7
2016-May-03 20:09 113 2 gusting 5 26.7
2016-May-03 20:05 061 2 gusting 5 26.7
2016-May-03 19:59 111 3 gusting 4 26.7
2016-May-03 19:55 132 3 gusting 4 27.2
2016-May-03 19:49 108 3 gusting 3 27.2
2016-May-03 19:45 136 1 gusting 3 27.2
2016-May-03 19:41 050 1 gusting 3 27.8
2016-May-03 19:35 112 1 gusting 4 27.8
2016-May-03 19:31 071 2 gusting 3 28.3
2016-May-03 19:24 092 1 gusting 3 28.9
2016-May-03 19:20 057 0 gusting 3 29.4
2016-May-03 19:14 056 30.0
2016-May-03 19:10 064 29.4
2016-May-03 19:04 070 2 gusting 4 30.0
2016-May-03 19:00 028 1 gusting 4 30.0
2016-May-03 18:54 054 30.6
2016-May-03 18:50 025 30.6
2016-May-03 18:44 073 31.1
2016-May-03 18:40 068 31.7
2016-May-03 18:34 056 31.7
2016-May-03 18:30 071 1 gusting 3 31.7
2016-May-03 18:26 002 0 gusting 5 31.7
2016-May-03 18:20 090 0 gusting 5 31.7
2016-May-03 18:16 095 31.7
2016-May-03 18:10 063 0 gusting 6 31.1
2016-May-03 18:06 088 5 gusting 7 31.1
2016-May-03 17:59 071 3 gusting 7 31.1
2016-May-03 17:50 060 4 gusting 6 32.8
2016-May-03 17:39 001 0 gusting 7 31.7
2016-May-03 17:20 091 5 gusting 8 31.7
2016-May-03 17:07 095 3 gusting 9 32.8
2016-May-03 17:01 098 5 gusting 8 32.2
2016-May-03 17:00 074 0 gusting 9 32.2
2016-May-03 16:50 120 2 gusting 5 33.3
2016-May-03 16:44 187 2 gusting 7 32.2
2016-May-03 16:40 098 3 gusting 9 32.8
2016-May-03 16:34 054 0 gusting 7 32.8
2016-May-03 16:30 293 2 gusting 7 33.9
2016-May-03 16:24 091 4 gusting 8 33.3
2016-May-03 16:20 056 6 gusting 8 33.3
2016-May-03 16:14 018 33.3
2016-May-03 16:10 102 0 gusting 7 33.3
2016-May-03 16:04 133 4 gusting 6 33.3
2016-May-03 16:00 251 1 gusting 6 34.4
2016-May-03 15:56 112 2 gusting 7 34.4
2016-May-03 15:50 111 6 gusting 7 33.3
2016-May-03 15:46 080 6 gusting 6 33.9
2016-May-03 15:40 052 33.9
2016-May-03 15:35 132 0 gusting 9 34.4
2016-May-03 15:29 180 1 gusting 4 35.6
2016-May-03 15:25 282 0 gusting 3 35.0
2016-May-03 15:19 094 33.3
2016-May-03 15:15 066 0 gusting 6 34.4
2016-May-03 15:09 047 0 gusting 10 34.4
2016-May-03 15:05 289 1 gusting 10 33.3
2016-May-03 14:59 130 5 gusting 8 33.3
2016-May-03 14:55 061 0 gusting 8 33.3
2016-May-03 14:49 154 4 gusting 5 33.3
2016-May-03 14:45 101 2 gusting 5 33.9
2016-May-03 14:41 127 0 gusting 8 32.8
2016-May-03 14:35 085 6 gusting 5 33.9
2016-May-03 14:31 243 3 gusting 10 33.3
2016-May-03 14:25 050 6 gusting 6 33.9
2016-May-03 14:21 135 0 gusting 6 33.9
2016-May-03 14:14 254 1 gusting 4 33.3
2016-May-03 14:10 286 3 gusting 7 32.2
2016-May-03 14:04 160 1 gusting 7 31.7
2016-May-03 14:00 025 3 gusting 8 32.2
2016-May-03 13:54 108 3 gusting 6 32.2
2016-May-03 13:50 054 2 gusting 6 32.2
2016-May-03 13:44 281 1 gusting 8 32.8
2016-May-03 13:40 099 4 gusting 8 32.2
2016-May-03 13:34 095 32.2
2016-May-03 13:30 066 4 gusting 5 32.8
2016-May-03 13:26 091 0 gusting 7 31.7
2016-May-03 13:20 135 2 gusting 8 31.1
2016-May-03 13:16 352 31.7
2016-May-03 13:10 281 2 gusting 7 31.1
2016-May-03 13:06 098 2 gusting 7 31.1
2016-May-03 12:59 099 1 gusting 6 31.7
2016-May-03 12:55 078 1 gusting 9 30.6
2016-May-03 12:49 097 0 gusting 7 31.1
2016-May-03 12:45 185 0 gusting 11 30.6
2016-May-03 12:39 106 3 gusting 8 30.0
2016-May-03 12:35 084 7 gusting 8 31.1
2016-May-03 12:29 078 2 gusting 8 31.1
2016-May-03 12:25 098 5 gusting 8 30.6
2016-May-03 12:19 158 3 gusting 11 29.4
2016-May-03 12:15 198 1 gusting 11 30.0
2016-May-03 12:09 29.4
2016-May-03 12:05 059 6 gusting 7 29.4
2016-May-03 12:01 102 5 gusting 6 30.0